www.pogodaiklimat.ru

Погода и климат >> Архив погоды >> Венгрия >> Надьканижа


ПОГОДА в Надьканиже

  • Прогноз погоды в Надьканиже
  • Монитор погоды в Надьканиже

АРХИВ ПОГОДЫ в Надьканиже

Время (UTC), дата Ветер
(напр.,м/с)
 
Видим.   Явления Облачность Т
(С)
Тd
(С)
f
(%)
Тe
(С)
Тes
(С)
Комфортность P
(гПа)
Po
(гПа)
Тmin
(С)
Tmax
(С)
R
(мм)
R24
(мм)
S
(см)
01 16.09 штиль 0 н/о н/о +10.4 +10.2 99 +10 +10 1020.9 1003.8
02 16.09 штиль 0 н/о н/о +9.7 +9.6 99 +9 +9 1020.9 1003.7
03 16.09 штиль 0 н/о н/о +9.3 +9.2 99 +8 +8 1020.5 1003.3
04 16.09 СЗ 1 н/о н/о +9.0 +8.9 99 +8 +8 1020.5 1003.3
05 16.09 штиль 0 н/о н/о +8.8 +8.7 99 +8 +8 1020.4 1003.2
06 16.09 Ю 1 н/о н/о +12.5 +12.3 99 +12 +12 1020.3 1003.3 +8.6
07 16.09 ЮВ 1 н/о н/о +15.0 +14.5 97 +15 +15 1020.1 1003.3
08 16.09 ЮЗ 2 н/о н/о +18.8 +15.7 82 +20 +20 1020.1 1003.5
09 16.09 Ю 2 н/о н/о +22.8 +16.4 67 +27 +27 душно 1019.4 1003.0
10 16.09 Ю 2 н/о н/о +23.9 +16.4 63 +27 +27 жарко 1019.0 1002.7
11 16.09 ЮЗ 3 н/о н/о +25.1 +17.3 62 +29 +29 душно 1018.5 1002.3
12 16.09 Ю 2 н/о н/о +27.0 +16.0 51 +30 +30 душно 1017.6 1001.5
13 16.09 Ю 2 н/о н/о +27.5 +16.2 50 +31 +31 душно 1017.1 1001.0
14 16.09 ЮЗ 2 н/о н/о +27.5 +16.2 50 +31 +31 душно 1016.3 1000.2
15 16.09 ЮЗ 2 н/о н/о +27.0 +16.0 51 +30 +30 душно 1015.6 999.5
16 16.09 ЮЗ 1 н/о н/о +26.8 +16.1 52 +30 +30 душно 1015.3 999.2
17 16.09 штиль 0 н/о н/о +24.4 +17.9 67 +29 +29 душно 1015.2 999.0
18 16.09 штиль 0 н/о н/о +18.8 +17.6 93 +20 +20 1015.5 999.0 +27.8
19 16.09 штиль 0 н/о н/о +17.5 +17.3 99 +17 +17 1015.8 999.2
20 16.09 штиль 0 н/о н/о +16.4 +16.2 99 +16 +16 1015.9 999.2
21 16.09 С 1 н/о н/о +15.6 +15.4 99 +16 +16 1015.9 999.2
22 16.09 штиль 0 н/о н/о +15.2 +15.0 99 +15 +15 1015.7 999.0
23 16.09 штиль 0 н/о н/о +14.6 +14.4 99 +14 +14 1015.5 998.7
00 17.09 С 1 н/о н/о +13.8 +13.6 99 +14 +14 1015.6 998.8
01 17.09 С 2 н/о н/о +15.3 +15.1 99 +15 +15 1015.7 999.0
02 17.09 ЮВ 1 н/о н/о +15.4 +15.2 99 +16 +16 1015.3 998.6
03 17.09 штиль 0 н/о н/о +14.9 +14.7 99 +15 +15 1014.9 998.1
04 17.09 штиль 0 н/о н/о +14.8 +14.6 99 +14 +14 1015.0 998.2
05 17.09 ЮВ 1 н/о н/о +15.8 +15.6 99 +16 +16 1014.9 998.2
06 17.09 штиль 0 н/о н/о +16.4 +16.2 99 +16 +16 1015.3 998.6 +13.6
07 17.09 штиль 0 н/о н/о +17.6 +17.4 99 +18 +18 1015.3 998.7
08 17.09 С 2 н/о н/о +19.1 +18.4 96 +21 +21 комфорт 1015.8 999.3
09 17.09 С 2 н/о н/о +22.2 +17.8 76 +27 +27 душно 1015.7 999.3
10 17.09 С 2 н/о н/о +23.4 +16.2 64 +28 +28 душно 1015.2 998.9
11 17.09 В 2 н/о н/о +25.4 +16.0 56 +29 +29 душно 1014.7 998.5
12 17.09 ЮВ 2 н/о н/о +26.2 +15.0 50 +29 +29 жарко 1013.9 997.8
13 17.09 ЮВ 2 н/о н/о +25.9 +15.6 53 +29 +29 душно 1013.6 997.5
14 17.09 В 2 н/о н/о +25.7 +16.0 55 +29 +29 душно 1013.0 996.9
15 17.09 В 1 н/о н/о +25.1 +16.8 60 +29 +29 душно 1012.4 996.3
16 17.09 В 1 н/о н/о +23.6 +16.9 66 +27 +27 жарко 1012.4 996.2
17 17.09 СВ 2 н/о н/о +22.1 +16.8 72 +26 +26 душно 1012.2 995.9
18 17.09 С 2 н/о н/о +19.6 +16.4 82 +22 +22 комфорт 1013.4 996.9 +27.1
19 17.09 штиль 0 н/о н/о +19.0 +16.2 84 +20 +20 1013.4 996.9
20 17.09 С 2 н/о н/о +18.7 +16.3 86 +20 +20 1014.1 997.6
21 17.09 С 2 н/о н/о +18.2 +16.7 91 +19 +19 1014.5 997.9
22 17.09 СВ 2 н/о н/о +18.4 +16.0 86 +20 +20 1014.9 998.3
23 17.09 В 1 н/о н/о +17.4 +16.3 93 +18 +18 1015.6 999.0
00 18.09 СВ 2 н/о н/о +16.9 +14.4 85 +17 +17 1016.1 999.4 0.9
01 18.09 СВ 3 н/о н/о +15.8 +10.8 72 +15 +15 1016.4 999.7
02 18.09 СВ 2 н/о н/о +14.9 +9.7 71 +15 +15 1016.8 1000.0
03 18.09 СВ 2 н/о н/о +14.8 +9.4 70 +15 +15 1017.8 1001.0
04 18.09 СВ 4 н/о н/о +14.8 +9.6 71 +14 +14 1018.7 1001.9
05 18.09 СВ 4 н/о н/о +13.9 +7.9 67 +13 +13 1019.7 1002.8
06 18.09 СВ 3
{8}
н/о н/о +13.1 +5.8 61 +12 +12 1021.5 1004.5 +13.1 0.9
07 18.09 СВ 4 н/о н/о +13.0 +4.9 58 +11 +11 1022.1 1005.1
08 18.09 СВ 5 н/о н/о +13.4 +4.6 55 +12 +12 1022.8 1005.8
09 18.09 СВ 3
{9}
н/о н/о +14.7 +5.0 52 +14 +14 1023.1 1006.2
10 18.09 СВ 2 н/о н/о +15.3 +5.5 52 +15 +15 1023.4 1006.5
11 18.09 СВ 2 н/о н/о +16.5 +5.8 49 +17 +17 1023.3 1006.5
12 18.09 СВ 3
{7}
н/о н/о +17.0 +3.0 39 +17 +17 1023.0 1006.2
13 18.09 С 2 н/о н/о +17.3 +3.9 41 +18 +18 1022.8 1006.1
14 18.09 В 1 н/о н/о +17.5 +1.5 34 +19 +19 1022.4 1005.7
15 18.09 ЮЗ 2 н/о н/о +15.6 +6.6 55 +16 +16 1022.7 1005.9
16 18.09 ЮЗ 2 н/о н/о +15.0 +7.3 60 +15 +15 1022.9 1006.0
17 18.09 ЮЗ 1 н/о н/о +14.3 +7.6 64 +15 +15 1022.9 1006.0
18 18.09 штиль 0 н/о н/о +10.5 +8.4 87 +10 +10 1023.9 1006.7 +18.2
19 18.09 Ю 1 н/о н/о +9.8 +8.4 91 +9 +9 1024.2 1007.0
20 18.09 штиль 0 н/о н/о +8.2 +8.2 100 +7 +7 1024.3 1007.0
21 18.09 Ю 1 н/о н/о +7.9 +7.8 99 +7 +7 1024.4 1007.1
22 18.09 штиль 0 н/о н/о +7.5 +7.4 99 +6 +6 1024.3 1007.0
23 18.09 штиль 0 н/о н/о +8.0 +7.9 99 +7 +7 1024.4 1007.1
00 19.09 штиль 0 н/о н/о +7.5 +7.4 99 +6 +6 1024.5 1007.1
01 19.09 штиль 0 н/о н/о +7.7 +7.6 99 +7 +7 1024.3 1007.0
02 19.09 штиль 0 н/о н/о +7.5 +7.4 99 +6 +6 1024.1 1006.8
03 19.09 С 1 н/о н/о +8.4 +8.3 99 +7 +7 1024.1 1006.8
04 19.09 С 1 н/о н/о +8.8 +8.7 99 +8 +8 1024.1 1006.8
05 19.09 С 1 н/о н/о +9.0 +8.9 99 +8 +8 1024.6 1007.3
06 19.09 С 2 н/о н/о +9.7 +8.8 94 +8 +8 1025.2 1008.0 +7.2
07 19.09 С 2 н/о н/о +10.4 +8.7 89 +9 +9 1025.6 1008.4
08 19.09 С 3 н/о н/о +13.3 +7.5 68 +12 +12 1025.7 1008.7
09 19.09 С 3 н/о н/о +16.4 +5.4 48 +16 +16 1025.6 1008.8
10 19.09 С 3 н/о н/о +16.8 +5.7 48 +17 +17 1025.4 1008.6
11 19.09 С 4 н/о н/о +16.7 +5.3 47 +16 +16 1025.5 1008.7
12 19.09 н/о н/о +16.2 +5.2 48 1025.7 1008.8
13 19.09 СВ 3 н/о н/о +16.6 +4.6 45 +16 +16 1025.3 1008.5
14 19.09 С 2 н/о н/о +17.3 +3.9 41 +18 +18 1024.9 1008.1
15 19.09 СВ 3
{8}
н/о н/о +17.0 +3.7 41 +17 +17 1024.7 1007.9
16 19.09 С 3 н/о н/о +15.8 +4.2 46 +15 +15 1025.1 1008.2
17 19.09 СВ 1 н/о н/о +13.6 +5.0 56 +14 +14 1025.6 1008.6
18 19.09 С 1 н/о н/о +8.0 +6.5 90 +7 +7 1026.9 1009.5 +17.7
19 19.09 С 1 н/о н/о +7.2 +6.1 93 +6 +6 1027.2 1009.8
20 19.09 штиль 0 н/о н/о +6.4 +6.1 98 +5 +5 1027.7 1010.2
21 19.09 штиль 0 н/о н/о +5.0 +4.9 99 +4 +4 1028.5 1010.9
22 19.09 штиль 0 н/о н/о +4.4 +4.3 99 +3 +3 1028.7 1011.1
23 19.09 СЗ 1 н/о н/о +3.5 +3.4 99 +2 +2 1028.7 1011.0
00 20.09 штиль 0 н/о н/о +2.9 +2.8 99 +2 +2 1029.0 1011.3
01 20.09 штиль 0 н/о н/о +2.5 +2.4 99 +1 +1 1028.8 1011.1
02 20.09 штиль 0 н/о н/о +1.8 +1.7 99 0 0 1028.8 1011.0
03 20.09 штиль 0 н/о н/о +1.8 +1.7 99 0 0 1028.6 1010.8
04 20.09 штиль 0 н/о н/о +1.5 +1.4 99 0 0 1028.7 1010.9
05 20.09 штиль 0 н/о н/о +1.1 +1.0 99 -0 -0 1028.7 1010.9
06 20.09 штиль 0 н/о н/о +3.0 +2.9 99 +2 +2 1029.1 1011.4 +0.8
07 20.09 С 2 н/о н/о +7.9 +5.9 87 +6 +6 1029.0 1011.6
08 20.09 С 3 н/о н/о +11.3 +5.4 67 +10 +10 1029.1 1011.9
09 20.09 СВ 2 н/о н/о +14.2 +5.6 56 +14 +14 1028.8 1011.8
10 20.09 С 3 н/о н/о +15.3 +4.7 49 +15 +15 1028.5 1011.5
11 20.09 СВ 2 н/о н/о +16.0 +5.0 48 +16 +16 1028.1 1011.2
12 20.09 СВ 1 н/о н/о +16.2 +4.9 47 +17 +17 1027.6 1010.7
13 20.09 С 2 н/о н/о +16.3 +3.0 41 +17 +17 1027.3 1010.4
14 20.09 С 3 н/о н/о +17.0 +3.3 40 +17 +17 1027.0 1010.2
15 20.09 С 3 н/о н/о +16.9 +3.6 41 +17 +17 1026.8 1010.0
17 20.09 СВ 1 н/о н/о +13.2 +6.1 62 +14 +14 1027.4 1010.3
18 20.09 штиль 0 н/о н/о +8.2 +7.0 92 +7 +7 1028.2 1010.8 +17.3
19 20.09 штиль 0 н/о н/о +7.2 +6.9 98 +6 +6 1028.4 1011.0
20 20.09 штиль 0 н/о н/о +5.9 +5.8 99 +5 +5 1028.6 1011.1
21 20.09 С 1 н/о н/о +4.5 +4.4 99 +3 +3 1028.8 1011.2
22 20.09 С 1 н/о н/о +4.3 +4.2 99 +3 +3 1028.5 1010.9
23 20.09 штиль 0 н/о н/о +4.2 +4.1 99 +3 +3 1028.6 1011.0
00 21.09 штиль 0 н/о н/о +4.1 +4.0 99 +3 +3 1028.6 1011.0
01 21.09 штиль 0 н/о н/о +3.5 +3.4 99 +2 +2 1028.7 1011.0
02 21.09 В 1 н/о н/о +2.6 +2.5 99 +1 +1 1028.5 1010.8
03 21.09 штиль 0 н/о н/о +2.0 +1.9 99 +1 +1 1028.5 1010.7
04 21.09 штиль 0 н/о н/о +1.7 +1.6 99 0 0 1028.3 1010.5
05 21.09 штиль 0 н/о н/о +1.2 +1.1 99 -0 -0 1028.4 1010.6
06 21.09 штиль 0 н/о н/о +3.9 +3.8 99 +3 +3 1028.4 1010.8 +1.2
07 21.09 штиль 0 н/о н/о +6.8 +6.7 99 +6 +6 1028.6 1011.1
08 21.09 штиль 0 н/о н/о +11.5 +6.4 71 +11 +11 1028.3 1011.1
09 21.09 Ю 2 н/о н/о +15.3 +6.3 55 +15 +15 1028.0 1011.1
10 21.09 Ю 2 н/о н/о +16.5 +6.1 50 +17 +17 1027.6 1010.7
11 21.09 Ю 3 н/о н/о +17.6 +3.5 39 +18 +18 1027.2 1010.4
12 21.09 ЮЗ 3 н/о н/о +18.3 +3.4 37 +19 +19 1026.0 1009.3
13 21.09 ЮЗ 2 н/о н/о +18.9 +3.5 36 +20 +20 1025.6 1008.9
14 21.09 Ю 2 н/о н/о +18.9 +2.7 34 +20 +20 1024.9 1008.2
15 21.09 Ю 3 н/о н/о +18.8 +2.2 33 +19 +19 1024.3 1007.6
16 21.09 Ю 2 н/о н/о +18.3 +3.4 37 +19 +19 1024.0 1007.3
17 21.09 ЮВ 1 н/о н/о +15.1 +7.9 62 +16 +16 1024.0 1007.1
18 21.09 штиль 0 н/о н/о +9.4 +7.2 86 +9 +9 1024.4 1007.2 +19.3
19 21.09 штиль 0 н/о н/о +8.3 +7.4 94 +7 +7 1024.4 1007.1
20 21.09 штиль 0 н/о н/о +6.7 +6.6 99 +6 +6 1024.4 1007.0
21 21.09 штиль 0 н/о н/о +5.2 +5.1 99 +4 +4 1024.1 1006.6
22 21.09 штиль 0 н/о н/о +4.6 +4.5 99 +3 +3 1023.9 1006.4
23 21.09 штиль 0 н/о н/о +4.0 +3.9 99 +3 +3 1023.5 1005.9
00 22.09 штиль 0 н/о н/о +3.3 +3.2 99 +2 +2 1023.0 1005.4
01 22.09 штиль 0 н/о н/о +2.9 +2.8 99 +2 +2 1022.8 1005.2
02 22.09 штиль 0 н/о н/о +2.4 +2.3 99 +1 +1 1022.7 1005.1
03 22.09 штиль 0 н/о н/о +1.9 +1.8 99 +1 +1 1021.9 1004.2
04 22.09 штиль 0 н/о н/о +1.5 +1.4 99 0 0 1021.8 1004.1
05 22.09 штиль 0 н/о н/о +1.2 +1.1 99 -0 -0 1021.5 1003.8
06 22.09 штиль 0 н/о н/о +4.4 +4.3 99 +3 +3 1021.4 1003.9 +1.2
07 22.09 штиль 0 н/о н/о +9.3 +7.4 88 +8 +8 1021.1 1003.9
08 22.09 ЮВ 1 н/о н/о +13.6 +5.7 59 +14 +14 1019.8 1002.9
09 22.09 Ю 3 н/о н/о +16.7 +5.6 48 +17 +17 1019.6 1002.9
10 22.09 ЮВ 4 н/о н/о +17.3 +5.6 46 +17 +17 1019.2 1002.5
11 22.09 Ю 4 н/о н/о +18.9 +6.1 43 +19 +19 1018.0 1001.4
12 22.09 Ю 3
{7}
н/о н/о +19.8 +6.9 43 +21 +21 комфорт 1017.0 1000.5
13 22.09 Ю 4 н/о н/о +19.6 +7.0 44 +20 +20 1016.7 1000.2
14 22.09 Ю 4 н/о н/о +19.5 +7.6 46 +20 +20 1016.1 999.6
15 22.09 Ю 3
{7}
н/о н/о +19.6 +8.3 48 +21 +21 комфорт 1015.7 999.2
16 22.09 Ю 3 н/о н/о +19.2 +9.1 52 +20 +20 1015.4 998.9
17 22.09 Ю 2 н/о н/о +17.9 +10.5 62 +18 +18 1015.3 998.7
18 22.09 Ю 2 н/о н/о +16.0 +10.1 68 +16 +16 1015.3 998.6 +20.0
19 22.09 Ю 1 н/о н/о +15.3 +9.9 70 +16 +16 1014.9 998.2
20 22.09 Ю 1 н/о н/о +14.7 +10.1 74 +15 +15 1014.7 997.9
21 22.09 Ю 2 н/о н/о +14.2 +10.2 77 +14 +14 1014.1 997.3
22 22.09 Ю 2 н/о н/о +14.8 +10.6 76 +15 +15 1013.9 997.2
23 22.09 Ю 2 н/о н/о +14.9 +10.7 76 +15 +15 1013.7 997.0
00 23.09 Ю 1 н/о н/о +14.4 +10.8 79 +15 +15 1013.4 996.6

 

Местоположение метеостанции Надьканижа (Венгрия): широта 46.45 долгота 16.97 высота над уровнем моря 141 м.

В архиве по умолчанию представлена погода в Надьканиже за последнюю неделю. Архивные данные за месяц целиком и за предыдущие месяцы, начиная с января 2011 года, Вы можете получить, выбрав интересующий диапазон дат из раскрывающегося списка и нажав кнопку "Ввод!".


*Определитесь, кто Вы:
робот инопланетянин человек

Внимание! Время в таблицах - всемирное. Для получения местного времени необходимо прибавить поправку, которая равна 1 ч.

Смотрите также архив погоды в соседних городах и на ближайших метеорологических станциях:

Погода в Шармеллеке (Венгрия) (30 км)
Погода в Вараздине (Хорватия) (48 км)
Погода в Залаэгерсеге (Венгрия) (48 км)
Погода в Крижевцах (Хорватия) (57 км)
Погода в Мурска-Соботе (Словения) (64 км)
Погода на Било-Горе (Хорватия) (66 км)
Погода в Капошваре (Венгрия) (66 км)
Погода в Сентготтхарде (Венгрия) (72 км)
Погода в Бад-Радкерсбурге (Австрия) (80 км)
Погода в Бьеловаре (Хорватия) (81 км)

Пояснения к столбцам:

Ветер - указаны скорость ветра в м/с - средняя за 10 мин, порывы в срок и между сроками (в фигурных скобках) и направление, откуда дует ветер: С - северный, СВ - северо-восточный, В - восточный, ЮВ - юго-восточный, Ю - южный, ЮЗ - юго-западный, З - западный, СЗ - северо-западный.
Видимость - горизонтальная дальность видимости в метрах или километрах. При видимости от 1 до 10 км при отсутствии осадков обычно наблюдается дымка, при ухудшении видимости до 1 км и менее - туман. В сухую погоду видимость может ухудшаться дымом, пылью или мглою.
Явления - указаны атмосферные явления, наблюдавшиеся в срок или в последний час перед сроком; фигурными скобками обозначены явления, наблюдавшиеся между сроками (за 1-3 часа до срока); квадратными скобками обозначены град или гололедные отложения с указанием их диаметра в мм.
Облачность - указаны через наклонную черту общая и нижняя облачность в баллах и высота нижней границы облаков в метрах; квадратными скобками обозначены формы облаков: Ci - перистые, Cs - перисто-слоистые, Cc - перисто-кучевые, Ac - высококучевые, As - высокослоистые, Sc - слоисто-кучевые, Ns - слоисто-дождевые, Cu - кучевые, Cb - кучево-дождевые. Подробнее классификацию облаков см. в Атласе облаков (PDF).
T - Температура воздуха - температура, измеренная на высоте 2 м над землей.
Td - Температура точки росы - температура, при понижении до которой содержащийся в воздухе водяной пар достигнет насыщения.
f - Относительная влажность воздуха - влажноcть воздуха, измеренная на высоте 2 м над землей.
Te - Эффективная температура - температура, которую ощущает одетый по сезону человек в тени. Характеристика душности погоды. При расчете учитывается влияние влажности воздуха и скорости ветра на теплоощущения человека.
Tes - Эффективная температура на солнце - температура, которую ощущает человек, с поправкой на солнечный нагрев. Характеристика знойности погоды. Зависит от высоты солнца над горизонтом, облачности и скорости ветра. Ночью, в пасмурную погоду, а также при ветре 12 м/с и более поправка равна нулю.
P - Атмосферное давление - приведенное к уровню моря атмосферное давление.
Po - Атмосферное давление - измеренное на уровне метеостанции атмосферное давление.
Tmin - Минимальная температура - минимум температуры воздуха на высоте 2 м над землей.
Tmax - Максимальная температура - максимум температуры воздуха на высоте 2 м над землей.
R - Количество осадков - Количество выпавших осадков за период времени, мм. При наведении курсора мыши на число - период времени, за который выпало указанное количество осадков.
R24 - Количество осадков - Количество выпавших осадков за 24 часа, мм.
S - Снежный покров - Высота снежного покрова, см. При наведении курсора мыши на число - состояние снежного покрова и степень покрытия местности в баллах.